SCP
5 5 6 6 5 5 5 6 6 5 4 5 5 5 4 3 3 3 4 3 1 1 1 1 1 1 1 1 1 1 1 1 1 1 1 1 1 1
5 5 5 5 5 5 5 7 7 7 6 6 6 5 4 3 2 3 4 3 2 1 1 1 0 0 1 1 1 1 1 0 1 1 1 1 1 1
5 5 6 6 6 6 6 8 8 7 6 6 6 6 6 4 3 3 3 3 2 2 1 1 0 0 0 0 0 0 0 0 0 0 0 0 1 1
6 7 7 7 7 7 7 8 8 7 6 6 6 7 7 6 4 3 2 2 2 2 1 1 0 0 0 0 0 0 0 0 0 0 0 0 0 0
8 8 8 8 8 7 8 8 8 7 7 6 6 6 6 6 4 3 2 2 2 2 1 1 1 0 0 0 0 0 0 0 0 0 0 0 0 0
8 8 8 8 8 8 8 9 9 9 8 7 6 5 4 4 4 3 2 2 2 2 2 2 1 1 1 0 0 0 0 0 0 0 0 0 0 0
8 8 8 7 7 7 7 7 8 8 8 7 5 4 3 3 3 3 3 3 2 2 2 2 2 2 2 1 1 0 0 0 0 0 0 0 0 0
8 8 7 6 6 6 6 6 5 5 5 5 4 3 3 3 3 3 2 2 2 2 3 3 3 3 2 2 1 1 0 0 0 0 0 0 0 0
8 7 7 6 5 5 5 5 4 3 3 3 3 3 3 3 3 3 2 2 2 2 3 3 3 3 3 2 1 1 0 0 0 0 0 0 0 0
8 7 6 6 5 4 5 5 4 3 2 2 2 3 3 3 3 3 2 2 2 3 3 3 2 3 3 2 2 1 0 0 0 0 0 0 0 0
8 6 5 4 4 3 3 4 4 3 2 2 2 2 2 2 2 2 2 2 2 3 3 3 3 3 3 3 2 1 1 0 0 0 0 0 0 0
7 6 4 3 2 2 3 3 3 2 2 2 2 2 2 2 2 2 2 2 2 3 3 3 3 3 3 3 3 2 1 1 0 0 0 0 0 0
7 7 5 3 1 1 2 2 2 1 2 2 2 2 2 3 3 3 3 3 4 4 4 4 4 4 4 4 4 3 2 2 1 1 1 0 0 0
6 5 4 2 1 1 1 1 1 1 2 3 3 3 4 4 5 5 5 4 5 5 5 4 4 4 4 4 4 4 4 3 3 2 1 1 0 0
3 3 2 1 0 0 1 1 1 1 3 4 4 4 5 5 7 7 6 5 5 5 5 4 3 3 3 3 4 4 5 4 3 2 2 2 1 1
2 1 1 1 1 1 1 1 1 2 4 4 4 3 4 5 6 7 6 4 4 4 4 3 3 3 2 2 3 4 5 5 3 2 1 2 2 2
2 2 2 2 2 2 3 3 3 3 3 3 3 2 2 3 4 5 4 4 4 3 3 3 2 2 2 2 3 4 5 4 2 1 1 1 1 2
3 4 4 4 4 4 4 4 3 3 3 3 2 2 2 3 3 4 4 3 3 3 3 2 2 2 3 3 3 4 4 3 2 1 0 0 1 1
4 4 4 5 5 5 5 4 3 3 3 3 3 3 3 3 4 4 4 4 3 3 3 2 2 2 2 3 4 3 3 2 1 1 1 0 0 0
4 4 4 4 4 4 4 3 3 3 3 4 4 4 4 4 5 5 5 4 3 3 2 2 2 1 1 2 3 3 2 1 1 1 1 0 0 0
3 3 3 3 3 4 4 3 3 3 4 4 4 4 5 5 5 5 5 4 3 2 2 2 2 1 1 1 2 2 1 0 1 1 0 0 0 0
3 3 2 2 3 3 4 4 3 3 4 4 4 5 5 6 6 5 4 3 3 2 2 2 1 1 1 2 2 2 1 0 0 0 0 0 0 0
3 3 3 2 3 3 4 4 3 3 4 5 5 5 6 6 5 4 4 3 3 3 2 2 1 1 2 3 3 1 1 0 0 0 0 0 0 0
Wind_Speed
3 2 3 3 2 2 2 1 1 2 2 2 1 2 2 3 6 5 5 9 10 9 9 8 7 6 6 5 5 5 5 5 5 5 5 5 5 5
2 2 2 3 2 2 2 2 1 1 2 2 1 1 1 2 5 4 4 8 10 10 10 9 8 8 7 7 6 5 5 5 5 5 6 6 6 6
3 2 2 2 2 2 2 2 1 1 2 2 1 1 1 1 2 3 4 4 5 11 11 10 9 9 8 8 7 6 6 6 6 6 6 6 6 6
3 2 3 2 2 2 2 3 2 2 2 3 2 2 2 3 3 4 4 5 4 9 12 11 10 10 9 9 8 8 7 6 6 6 6 6 7 6
3 3 3 2 2 2 2 3 3 3 2 2 3 2 2 2 2 3 4 3 4 6 11 12 12 11 11 10 10 8 7 7 6 6 6 6 6 6
3 4 3 3 2 3 3 3 3 3 2 2 2 2 2 2 1 2 2 2 3 4 4 7 9 12 11 11 10 9 8 8 7 7 7 7 6 6
4 4 3 2 2 3 3 2 2 2 3 3 2 2 2 1 2 2 2 2 3 3 2 3 4 5 6 9 10 10 10 9 8 8 7 7 7 7
4 3 3 3 2 2 2 2 2 3 3 3 3 2 3 3 2 2 2 2 3 2 1 3 3 4 4 5 9 12 11 11 10 9 9 8 8 8
4 3 4 3 1 1 2 3 3 4 4 3 4 4 3 3 2 3 3 3 4 3 2 3 3 3 3 4 9 12 12 12 11 10 9 9 8 8
3 3 3 2 2 1 2 2 2 3 4 3 3 4 3 2 3 3 4 4 4 3 2 3 3 3 3 2 7 11 12 12 11 10 9 9 8 8
3 2 2 1 1 1 1 2 3 3 4 4 4 4 4 4 3 2 3 3 4 3 2 2 2 2 2 2 4 9 10 10 10 10 10 9 8 7
2 2 1 1 1 1 2 2 4 4 3 3 3 5 5 5 5 4 3 3 3 3 2 2 2 1 2 2 2 3 5 7 9 10 10 10 8 5
3 2 1 3 3 4 4 3 5 5 3 4 4 3 3 3 3 3 3 3 3 3 2 1 2 2 2 2 2 3 3 3 4 5 8 10 10 8
3 2 1 2 4 5 5 5 5 4 3 4 3 3 3 3 2 2 3 4 4 4 3 2 2 3 3 3 3 2 2 2 3 3 4 6 8 10
3 3 3 3 4 4 7 7 4 3 4 4 3 3 2 2 2 2 3 4 5 5 4 3 4 3 3 4 3 2 2 2 2 2 3 3 4 4
4 4 5 6 6 5 4 4 4 4 4 4 3 3 2 2 2 2 2 2 3 3 4 4 4 4 4 4 3 3 2 2 2 2 2 3 3 3
3 3 4 3 3 3 3 3 3 3 4 4 3 3 3 2 2 2 2 2 3 3 3 2 2 2 2 3 3 3 3 2 2 2 2 3 3 3
3 4 4 3 3 3 3 3 3 3 3 3 3 3 3 3 2 2 2 2 2 2 2 2 1 1 2 2 3 3 3 2 2 2 2 2 3 2
4 4 4 3 3 3 3 3 3 2 2 2 3 3 3 3 3 2 2 2 2 2 2 2 1 2 3 4 3 3 3 2 2 2 2 2 3 3
3 4 3 3 2 2 2 2 2 2 2 2 3 2 2 2 3 3 2 3 3 2 3 2 1 2 3 4 3 3 3 2 2 2 2 2 2 2
3 3 3 2 2 2 2 2 2 2 2 2 2 2 2 2 2 3 3 3 3 3 3 3 3 4 3 2 3 2 2 3 3 2 2 2 2 2
3 3 2 2 2 2 2 2 2 2 2 2 2 2 2 2 3 3 3 3 3 3 4 3 2 2 2 3 4 3 2 2 3 3 3 4 3 3
2 2 2 2 2 1 2 2 2 2 2 3 2 2 3 3 3 3 3 3 3 4 3 3 2 2 3 3 3 3 3 3 2 2 3 5 8 8
Wind_Direction
276 281 285 291 296 305 299 278 257 277 268 251 219 169 156 142 163 174 168 183 187 192 197 201 207 211 213 217 222 227 226 221 224 224 226 228 233 237
254 269 284 296 307 296 283 282 260 245 268 261 259 195 171 180 173 178 174 180 190 196 200 204 207 211 211 214 217 221 221 218 220 225 227 228 232 238
264 257 260 275 298 303 302 290 287 263 255 270 251 212 187 206 173 195 183 188 195 199 200 202 207 211 210 212 216 220 223 221 222 227 230 230 230 235
263 275 273 268 280 292 297 292 282 267 257 266 263 237 235 222 205 213 217 213 205 203 199 202 207 210 212 211 214 217 220 222 224 228 232 234 233 235
262 263 265 272 273 277 282 289 286 283 260 260 263 250 244 243 226 236 240 233 238 208 198 203 207 210 213 212 215 214 216 220 223 227 230 233 234 235
263 259 257 249 258 274 273 282 292 293 280 272 268 263 260 248 219 238 256 245 251 243 208 199 206 211 216 215 213 210 211 216 219 224 226 227 229 229
259 259 256 254 269 272 282 305 304 299 298 291 280 285 285 281 262 255 261 260 251 239 219 217 205 212 214 217 213 212 211 211 214 219 223 225 227 230
269 271 261 237 240 243 275 277 274 280 293 296 295 289 292 299 293 279 278 276 272 247 217 242 211 217 213 204 202 205 208 209 210 215 219 221 224 227
263 266 278 275 208 240 253 254 264 263 254 269 282 282 282 287 299 291 273 267 268 276 254 255 237 230 225 211 196 199 204 207 209 213 216 219 224 227
260 249 247 276 270 269 263 273 266 265 252 242 252 264 273 284 269 261 262 262 255 262 241 252 256 247 248 214 202 202 204 206 209 213 216 219 223 228
245 248 232 230 278 301 261 286 297 286 268 256 252 262 266 274 272 278 272 264 268 263 242 243 253 266 249 231 218 207 208 208 211 216 221 222 224 226
238 219 196 199 224 237 245 262 269 277 285 284 271 262 255 255 242 231 253 266 273 275 252 249 268 277 272 239 206 199 209 216 219 221 223 221 216 215
264 243 205 189 217 231 237 247 253 267 277 273 266 257 250 250 234 222 228 241 258 263 272 256 267 260 252 271 252 211 202 208 210 220 223 221 215 208
275 276 233 207 232 240 243 257 263 267 270 267 268 270 262 253 247 229 228 230 239 247 269 272 267 258 258 267 266 238 217 211 200 204 207 213 220 221
284 315 301 251 243 245 248 252 251 249 255 261 263 263 256 253 241 230 236 236 241 249 252 246 251 265 254 257 261 251 242 243 215 206 201 205 209 203
268 284 275 248 250 255 245 233 229 242 248 254 266 267 263 259 255 250 246 235 243 254 249 242 237 246 257 263 263 263 250 238 224 217 222 232 221 206
246 248 250 244 241 240 242 240 233 229 238 249 262 271 273 270 269 272 271 270 259 262 269 268 253 246 258 263 263 261 255 250 238 223 233 249 239 219
223 244 248 251 251 252 252 251 242 243 248 254 261 266 271 270 269 264 263 265 268 272 276 273 276 288 290 279 252 263 267 263 254 239 235 248 257 243
224 251 253 255 258 259 257 261 264 260 253 254 256 260 267 273 274 269 263 268 271 273 272 262 246 254 270 275 276 246 245 258 269 269 259 255 255 252
243 262 273 274 273 275 275 273 280 282 271 267 270 271 272 277 280 281 272 268 267 268 270 258 246 248 252 267 274 279 249 251 260 264 269 273 270 270
268 269 274 281 288 289 284 288 297 293 297 296 294 295 295 287 288 292 289 282 270 266 267 256 246 246 252 258 260 261 268 253 249 245 247 253 265 253
274 282 289 296 296 301 304 297 291 295 297 292 300 304 304 297 284 283 285 286 277 273 275 274 259 253 251 253 258 256 262 257 263 264 248 224 229 242
275 282 286 290 288 286 295 306 319 332 333 329 321 309 302 296 287 282 283 280 274 270 271 270 268 263 258 256 263 262 255 253 244 245 257 244 235 238